Flag for Chile Weather past 2 weeks in Iquique, Chile

Now
70 °F

Clear.


Feels Like: 70 °F
Forecast: 67 / 77 °F
Wind: 7 mph from South

Location: Iquique / Diego Arac

Current Time: Apr 19, 2015 at 10:52:11 PM

Latest Report: Apr 19, 2015 at 10:00 PM


Visibility: 10 mi

Pressure: 29.98 "Hg

Humidity: 69%

Dew point: 59 °F

Location of IquiqueLocation

Historic Weather in Iquique — Graph

°F

Iquique temperature yesterday

Maximum temperature yesterday: 75 °F (at 4:00 PM)
Minimum temperature yesterday: 68 °F (at 5:00 AM)
Average temperature yesterday: 71 °F

Past Weeks' High & Low Weather Summary

 TemperatureHumidityPressure
High77 °F (Apr 15, 4:00 PM)100% (Apr 5, 9:00 AM)30.07 "Hg (Apr 5, 9:00 AM)
Low52 °F (Apr 5, 9:00 AM)25% (Apr 17, 9:00 PM)29.77 "Hg (Apr 7, 5:00 PM)
Average71 °F67%29.92 "Hg
* Reported Apr 4 10:00 PM — Apr 19 10:00 PM, Iquique, Weather by CustomWeather, © 2015

Note: Actual official high and low records may vary slightly from our data, if they occured in-between our weather recording intervals... More about our weather records

Advertising

Iquique weather history for previous 24 hours

 ConditionsComfort  
Time TempWeatherWind HumidityBarometerVisibility
10:00 PM
Sun, Apr 19
70 °FClear.7 mph69%29.98 "Hg10 mi
9:00 PM70 °FClear.7 mph64%29.95 "Hg10 mi
8:00 PM72 °FClear.9 mph61%29.92 "Hg10 mi
7:00 PM73 °FClear.8 mph57%29.89 "Hg10 mi
6:00 PM73 °FSunny.9 mph57%29.89 "Hg10 mi
5:00 PM73 °FScattered clouds.12 mph57%29.89 "HgN/A
4:00 PM75 °FPassing clouds.12 mph54%29.89 "HgN/A
3:00 PM75 °FScattered clouds.12 mph54%29.89 "HgN/A
2:00 PM75 °FMild.12 mph54%29.92 "HgN/A
1:00 PM73 °FScattered clouds.10 mph61%29.95 "HgN/A
12:00 PM73 °FPartly sunny.9 mph57%29.95 "HgN/A
11:00 AM72 °FOvercast.9 mph61%29.95 "HgN/A
10:00 AM73 °FOvercast.7 mph57%29.95 "HgN/A
9:00 AM72 °FOvercast.9 mph61%29.95 "HgN/A
8:00 AM72 °FOvercast.9 mph61%29.92 "HgN/A
7:00 AM72 °FOvercast.3 mph61%29.92 "HgN/A
6:00 AM70 °FOvercast.No wind69%29.92 "HgN/A
5:00 AM72 °FOvercast.6 mph65%29.92 "HgN/A
4:00 AM70 °FOvercast.7 mph69%29.95 "HgN/A
3:00 AM70 °FOvercast.3 mph69%29.95 "HgN/A
2:00 AM73 °FOvercast.3 mph57%29.98 "HgN/A
1:00 AM73 °FOvercast.2 mph57%30.01 "HgN/A
12:00 AM72 °FOvercast.2 mph65%30.01 "HgN/A
11:00 PM
Sat, Apr 18
72 °FOvercast.2 mph65%30.01 "HgN/A
10:00 PM72 °FOvercast.6 mph65%29.98 "HgN/A
Weather by CustomWeather, © 2015

See weather overviewHow to use our weather pages